Location: Canet
(43.3261°N, 5.3723°E)
Time: 19:36:18
(UTC+00:00)

IRS-1C Rocket - Pass Details

Date: 24 January 2021
Orbit: 801 x 805 km, 99.0° (Epoch: 08 March)

Event Time Altitude Azimuth Distance (km) Brightness Sun altitude
Rises 17:43:55 0° 155° (SSE) 3,297 7.2 -11.7°
Reaches altitude 10° 17:46:15 10° 153° (SSE) 2,371 6.4 -12.1°
Maximum altitude 17:51:26 65° 72° (ENE) 880 4.0 -13.0°
Drops below altitude 10° 17:56:39 10° 352° (N) 2,387 6.5 -14.0°
Sets 17:59:00 0° 349° (N) 3,322 7.3 -14.4°
